This is the latest recevied weather packets stored in our database for station/object DJ2DS-13. If no packets are shown the sender has not sent any weather packets the latest 10 day(s).
| Time | Temp. | Humidity | Pressure | Rain* | Wind** | Luminosity | Snow |
|---|---|---|---|---|---|---|---|
| 1777965913 | 9.44° C | 84% | 1011.3 hPa | 0 mm | - | 135 W/m² | - |
| 1777965612 | 9.44° C | 84% | 1011.3 hPa | 0 mm | - | 127 W/m² | - |
| 1777965312 | 9.44° C | 85% | 1011.4 hPa | 0 mm | - | 127 W/m² | - |
| 1777965010 | 9.44° C | 85% | 1011.3 hPa | 0 mm | - | 148 W/m² | - |
| 1777964710 | 9.44° C | 85% | 1011.2 hPa | 0 mm | - | 171 W/m² | - |
| 1777964412 | 9.44° C | 85% | 1011.5 hPa | 0 mm | - | 148 W/m² | - |
| 1777964111 | 9.44° C | 85% | 1011.4 hPa | 0 mm | - | 135 W/m² | - |
| 1777963808 | 8.89° C | 86% | 1011.5 hPa | 0 mm | - | 135 W/m² | - |
| 1777963507 | 8.89° C | 86% | 1011.5 hPa | 0 mm | - | 116 W/m² | - |
| 1777963207 | 8.89° C | 86% | 1011.5 hPa | 0 mm | - | 104 W/m² | - |
| 1777962906 | 8.89° C | 86% | 1011.4 hPa | 0 mm | - | 125 W/m² | - |
| 1777962605 | 8.89° C | 87% | 1011.5 hPa | 0 mm | - | 114 W/m² | - |
| 1777962304 | 8.89° C | 87% | 1011.6 hPa | 0 mm | - | 93 W/m² | - |
| 1777962005 | 8.33° C | 87% | 1011.6 hPa | 0 mm | - | 81 W/m² | - |
| 1777961704 | 8.33° C | 87% | 1011.5 hPa | 0 mm | - | 79 W/m² | - |
| 1777961406 | 8.33° C | 87% | 1011.6 hPa | 0 mm | - | 74 W/m² | - |
| 1777961103 | 8.33° C | 87% | 1011.6 hPa | 0 mm | - | 67 W/m² | - |
| 1777960803 | 8.33° C | 87% | 1011.5 hPa | 0 mm | - | 58 W/m² | - |
| 1777960502 | 8.33° C | 87% | 1011.6 hPa | 0 mm | - | 53 W/m² | - |
| 1777960203 | 8.33° C | 87% | 1011.6 hPa | 0 mm | - | 46 W/m² | - |
| 1777959903 | 8.33° C | 87% | 1011.7 hPa | 0 mm | - | 41 W/m² | - |
| 1777959604 | 8.33° C | 87% | 1011.5 hPa | 0 mm | - | 35 W/m² | - |
| 1777959302 | 7.78° C | 88% | 1011.5 hPa | 0 mm | - | 35 W/m² | - |
| 1777959004 | 8.33° C | 87% | 1011.5 hPa | 0 mm | - | 35 W/m² | - |
| 1777958703 | 8.33° C | 88% | 1011.6 hPa | 0 mm | - | 32 W/m² | - |
* Rain latest hour (hover to see other rain measurements)
** Current wind speed in m/s (hover to see current wind gust speed)